Location: Rumah Sambob
(2.9167°N, 113.9167°E)
Time: 11:38:33
(UTC+00:00)

CZ-2C R/B - Pass Details

Date: 06 June 2020
Orbit: 668 x 784 km, 98.2° (Epoch: 06 July)

Event Time Altitude Azimuth Distance (km) Brightness Sun altitude
Rises 20:00:03 0° 15° (NNE) 3,244 6.3 -31.3°
Reaches altitude 10° 20:02:23 10° 17° (NNE) 2,309 5.5 -30.7°
Enters shadow 20:06:45 62° 45° (NE) 851 2.8 -29.8°
